Location: Narvik
(68.4360°N, 17.4370°E)
Time: 11:26:00
(UTC+02:00)

EO-79 - Visible Passes

Search period start: 20 August 2019 00:00
Search period end: 30 August 2019 00:00
Orbit: 593 x 609 km, 97.9° (Epoch: 19 August)

Date Brightness Start Highest point End Pass type
(mag) Time Alt. Az. Time Alt. Az. Time Alt. Az.
20 Aug ? 00:45:15 10° NNE 00:48:53 27° E 00:52:31 10° SSE visible
20 Aug ? 02:20:53 10° NNE 02:25:11 89° ESE 02:29:27 10° SSW visible
21 Aug ? 00:56:38 10° NNE 01:00:26 30° E 01:04:13 10° SSE visible
21 Aug ? 02:32:20 10° NNE 02:36:37 80° WNW 02:40:53 10° SSW visible
21 Aug ? 23:33:47 10° ENE 23:34:58 11° ENE 23:36:09 10° E visible
22 Aug ? 01:08:02 10° NNE 01:11:59 35° E 01:15:46 11° SSE visible
22 Aug ? 02:43:48 10° NNE 02:48:03 70° WNW 02:52:17 10° SW visible
22 Aug ? 23:44:41 10° NE 23:46:37 13° ENE 23:48:31 10° ESE visible
23 Aug ? 01:19:27 10° NNE 01:23:30 40° E 01:27:14 12° SSE visible
23 Aug ? 02:55:15 10° NNE 02:59:29 61° WNW 03:03:40 10° SW visible
23 Aug ? 23:55:50 10° NE 23:58:14 15° ENE 00:00:38 10° ESE visible
24 Aug ? 01:30:53 10° NNE 01:35:01 47° E 01:38:42 12° S visible
24 Aug ? 03:06:43 10° NNE 03:10:53 53° WNW 03:15:01 10° SW visible
25 Aug ? 00:07:04 10° NE 00:09:51 17° E 00:12:37 10° ESE visible
25 Aug ? 01:42:18 10° NNE 01:46:31 54° ESE 01:50:10 13° S visible
25 Aug ? 03:18:11 10° NNE 03:22:17 47° NW 03:26:21 10° SW visible
26 Aug ? 00:18:21 10° NE 00:21:26 19° E 00:24:31 10° SE visible
26 Aug ? 01:53:45 10° NNE 01:58:00 63° ESE 02:01:38 14° S visible
26 Aug ? 03:29:39 10° NNE 03:33:40 42° NW 03:37:40 10° WSW visible
27 Aug ? 00:29:41 10° NE 00:33:02 22° E 00:36:21 10° SE visible
27 Aug ? 02:05:12 10° NNE 02:09:28 73° ESE 02:13:06 14° SSW visible
28 Aug ? 00:41:03 10° NNE 00:44:36 25° E 00:47:48 12° SE visible
28 Aug ? 02:16:39 10° NNE 02:20:56 84° ESE 02:24:34 14° SSW visible
29 Aug ? 00:52:25 10° NNE 00:56:09 29° E 00:59:16 13° SSE visible
29 Aug ? 02:28:06 10° NNE 02:32:22 84° WNW 02:36:02 14° SSW visible
29 Aug ? 23:30:05 10° ENE 23:30:38 10° ENE 23:31:10 10° E visible
